Location: Kawakawa
(35.3830°S, 174.0670°E)
Time: 23:46:21
(UTC+13:00)

Cosmos 2322 - Pass Details

Date: 24 January 2019
Orbit: 839 x 856 km, 71.0° (Epoch: 17 October)

Event Time Altitude Azimuth Distance (km) Brightness Sun altitude
Exits shadow 21:47:57 17° 69° (ENE) 2,004 5.1 -13.2°
Drops below altitude 10° 21:52:31 10° 122° (ESE) 2,486 5.9 -14.0°
Enters shadow 23:08:47 -37° 336° (NNW) 8,925 8.9 -25.2°
Maximum altitude 23:32:28 53° 246° (WSW) 1,041 4.3 -28.1°
